Wind_Speed
6 6 7 7 8 9 10 12 13 14 15 16 18 18 19 18 17 18 18 18 19 21 21 21 20 20 20 21 22 22 23 23 23 23 23 24 26 27 28 30 32 34 36 38 40 41 42 43 44 43 46 48 45 45 46 46 46 46 45 45 46 44 42 40 39 36 31 27 22 15 6 3 10 15 20 22 22 24 25 25 23 22 23 22 25 27 27 29
9 9 10 10 10 11 12 14 15 15 15 16 17 18 18 18 18 18 18 19 19 20 21 21 20 20 20 20 21 22 22 22 22 22 22 23 24 26 27 29 31 33 34 36 38 39 41 41 42 43 45 46 44 44 45 46 46 46 45 44 44 43 42 41 39 37 34 30 26 22 14 4 4 9 14 18 20 24 25 25 26 26 25 24 26 28 28 29
11 12 12 12 12 13 14 14 15 16 16 16 16 17 18 18 18 18 19 19 19 19 20 21 21 20 20 20 20 21 22 23 23 23 22 22 23 24 26 28 29 31 33 34 36 37 38 40 41 43 44 44 43 43 44 45 45 45 45 44 42 40 40 40 39 37 35 32 28 25 20 12 3 3 7 12 16 22 26 26 26 25 24 24 26 28 30 31
13 13 14 14 14 14 15 15 16 17 17 17 17 18 18 18 18 19 19 20 20 19 19 20 21 21 20 20 21 22 23 23 23 23 23 23 23 23 25 27 28 30 31 32 34 35 36 38 40 41 42 42 42 43 44 43 43 43 43 43 41 39 38 38 38 37 34 32 29 26 22 17 10 4 2 6 9 15 22 25 23 23 25 25 25 27 30 32
13 14 14 15 15 15 15 16 18 19 19 19 19 19 19 19 19 20 20 20 20 20 20 19 20 21 21 21 22 23 23 24 24 24 24 24 23 23 24 26 27 29 30 31 32 33 35 36 38 39 42 42 43 43 42 41 41 41 41 41 40 39 38 36 36 36 34 32 30 28 24 20 15 9 4 1 4 8 13 18 20 22 24 24 24 24 26 29
15 15 15 16 16 17 18 19 20 21 21 21 21 21 21 21 20 21 21 21 20 20 20 20 21 22 22 22 22 23 24 25 25 25 25 24 24 24 24 25 26 28 29 30 31 32 33 35 36 38 40 42 43 43 42 41 40 39 39 38 37 37 37 35 34 33 33 33 31 29 26 22 19 14 9 5 2 3 6 9 13 17 19 20 22 22 23 25
17 17 17 18 19 20 21 21 21 21 22 22 22 22 22 22 21 21 21 21 21 21 21 22 23 23 23 23 23 24 25 26 26 26 26 25 25 25 25 25 25 26 27 28 29 31 32 33 34 36 39 41 42 43 43 42 40 39 37 36 36 35 36 35 34 32 31 31 31 29 27 24 22 19 15 10 6 4 4 4 6 10 14 16 17 17 20 23
19 19 19 19 20 21 21 22 22 21 22 22 23 23 23 23 22 22 21 21 22 22 22 23 25 25 24 24 24 24 25 26 27 27 27 26 26 27 26 25 25 25 26 27 28 29 31 32 33 34 37 39 41 42 43 42 40 39 37 36 35 34 34 35 34 33 31 29 29 29 28 25 22 21 19 16 12 7 6 6 5 5 7 9 9 9 14 20
21 21 21 21 22 22 23 23 23 22 22 22 23 23 23 23 22 22 22 22 22 23 24 25 26 26 26 25 25 25 25 27 28 28 28 27 27 27 28 27 26 26 26 27 28 28 30 31 32 33 35 37 39 40 41 41 40 38 37 36 35 34 32 32 33 34 32 30 28 27 28 27 24 22 20 19 17 12 9 7 7 4 2 2 4 6 7 13
23 23 24 24 24 25 25 25 24 23 23 23 23 23 23 22 22 22 22 22 22 23 24 25 26 26 26 25 25 26 26 27 28 28 28 28 27 28 29 29 28 27 27 27 28 28 29 31 32 33 34 35 37 38 39 39 39 38 38 37 35 33 31 30 31 32 32 31 30 28 26 26 25 23 19 18 19 17 13 9 8 7 4 3 5 7 5 7
24 24 25 25 25 26 26 26 25 24 23 23 23 23 23 23 22 22 22 22 22 23 24 25 26 26 27 26 26 27 27 28 29 28 29 29 28 28 29 30 30 29 28 28 29 28 28 30 32 32 33 34 35 36 37 38 38 38 38 38 36 33 30 28 28 28 30 31 32 30 27 25 24 22 20 18 18 18 16 11 8 6 6 6 7 6 4 7
23 24 24 24 24 25 25 25 25 25 23 23 23 23 22 23 23 22 22 22 23 23 24 24 25 26 27 28 27 27 28 28 29 29 30 30 29 28 30 30 31 31 30 30 30 30 29 30 32 32 32 33 34 35 36 36 37 37 37 37 37 34 30 28 27 26 28 30 32 33 30 26 22 20 20 19 19 18 18 16 11 6 5 6 8 6 4 7
23 24 24 24 24 23 24 24 25 25 24 23 23 23 23 23 23 23 23 23 23 23 24 24 25 26 27 29 28 28 28 28 28 29 30 30 29 29 30 31 31 32 31 30 31 31 30 30 32 33 33 32 33 34 35 35 36 36 36 37 36 34 31 27 26 26 28 31 33 34 32 28 23 21 21 21 20 18 17 18 15 9 4 5 7 6 5 6
24 25 25 25 25 24 23 24 24 25 24 24 24 23 23 24 24 24 24 24 24 24 25 25 25 25 26 29 29 29 29 28 28 29 30 30 30 29 30 31 31 32 31 30 30 30 30 30 32 33 33 33 33 33 34 34 35 36 36 37 36 35 32 28 25 26 29 32 33 34 34 30 25 23 22 22 21 18 17 16 15 12 7 4 7 6 6 6
23 24 25 25 25 24 24 23 24 25 25 24 24 24 24 25 25 25 26 25 26 26 25 25 25 26 27 28 29 29 29 28 27 28 29 30 30 30 30 31 31 31 31 31 30 30 30 30 32 34 34 34 34 33 34 34 34 34 35 37 37 37 35 32 29 27 29 32 33 34 34 31 27 23 21 20 19 18 18 17 15 14 11 7 6 6 6 6
22 22 23 24 23 23 22 23 23 24 25 25 25 25 25 26 26 26 26 26 26 26 26 26 25 25 27 29 28 29 28 28 28 28 29 30 30 30 30 31 31 31 31 32 31 31 30 30 31 33 34 35 35 34 34 35 34 33 34 36 38 38 38 37 33 31 30 32 34 34 34 33 29 25 22 20 18 18 18 17 16 15 14 11 6 6 6 5
21 21 22 22 21 21 20 21 21 22 23 23 24 25 25 25 26 26 25 25 25 25 26 26 25 24 26 29 28 28 29 28 28 28 29 30 31 31 31 32 32 31 32 32 32 32 31 30 31 32 34 35 36 36 35 35 34 32 31 35 38 39 39 40 38 35 33 33 35 36 34 33 31 27 24 21 19 19 18 18 18 16 14 13 10 5 7 7
20 21 21 21 21 20 20 20 20 20 21 22 22 23 23 24 25 26 25 25 26 26 26 27 27 26 25 29 30 29 30 30 30 30 30 31 31 33 33 33 32 32 33 33 33 34 33 32 32 33 35 37 37 37 37 36 35 33 30 33 38 39 38 38 38 36 35 34 35 37 35 33 32 29 26 23 22 20 19 19 19 17 15 14 12 8 5 9
21 21 22 22 22 22 21 21 22 22 22 22 23 24 24 24 26 27 27 26 27 28 28 29 31 29 27 29 32 33 32 32 32 32 32 32 33 34 34 34 33 34 34 34 35 35 35 34 35 36 37 39 39 39 39 38 37 34 31 31 37 39 38 37 36 35 35 35 36 38 37 34 33 32 27 25 24 22 20 19 19 18 17 15 12 11 6 6
21 22 23 23 24 24 24 24 24 25 25 25 26 27 27 28 28 30 31 29 30 31 31 31 34 34 31 31 33 35 35 35 34 34 34 35 35 35 35 35 35 35 35 35 36 36 36 37 38 38 40 41 42 41 41 41 39 36 33 31 35 39 39 37 34 33 35 35 36 39 39 36 34 33 29 25 24 23 20 18 18 18 17 15 13 11 9 5
22 23 24 25 26 27 27 27 27 28 28 29 29 29 30 31 31 32 34 34 32 33 35 34 35 37 36 34 34 35 37 38 37 37 37 38 37 36 36 37 37 36 36 36 36 35 37 41 41 39 41 43 43 43 42 42 41 38 34 31 35 40 39 37 33 32 34 33 35 38 40 38 35 34 30 26 24 24 22 19 17 17 16 14 14 12 9 7
24 25 26 27 28 29 29 30 30 31 31 32 32 32 33 33 34 34 36 37 35 34 36 38 37 38 39 39 37 36 37 38 38 39 40 41 40 38 37 39 39 38 37 38 37 35 38 44 42 39 41 44 43 44 43 43 42 38 33 32 36 40 40 37 33 31 32 33 35 39 40 39 36 35 31 28 26 24 23 22 19 17 16 14 14 13 10 7
26 26 27 28 30 31 31 32 32 33 33 34 34 34 35 34 35 36 36 39 39 37 37 38 39 40 41 42 41 39 39 39 39 38 39 43 43 40 39 40 41 41 40 39 38 36 38 43 42 39 41 43 43 43 43 43 41 36 33 33 37 40 39 35 32 31 31 32 37 40 40 39 38 36 33 30 28 26 23 23 21 18 15 14 14 13 11 9
27 27 28 29 30 32 33 33 33 34 34 35 35 35 36 36 36 37 37 39 40 41 41 39 39 40 41 43 43 43 42 42 43 40 37 43 46 43 42 42 42 43 43 42 39 36 38 42 42 40 41 42 43 44 44 42 39 37 37 37 38 40 37 33 33 32 30 34 39 39 38 39 38 37 34 32 31 28 24 23 23 21 18 15 14 13 11 9
28 28 28 29 30 31 33 33 33 35 35 35 36 36 36 37 37 38 39 40 40 41 44 42 41 41 41 41 42 43 43 43 47 44 39 44 49 45 44 45 44 45 46 44 43 41 40 42 43 43 44 44 45 46 44 42 41 42 42 40 39 37 35 34 33 31 32 38 41 38 36 38 39 38 36 35 34 30 26 24 24 23 21 18 15 14 12 10
29 29 29 29 29 29 31 33 33 34 35 36 36 37 37 37 38 38 39 41 41 41 44 46 45 44 43 42 42 42 41 42 46 47 44 46 48 47 47 47 47 48 49 47 46 45 42 42 44 46 47 47 47 46 45 43 42 43 44 43 39 35 34 36 35 34 37 41 42 39 36 37 38 39 38 36 36 34 29 26 26 25 23 20 17 15 13 12
31 30 29 28 29 29 30 33 34 35 36 37 37 38 39 39 40 40 40 42 43 42 42 46 47 46 45 45 45 43 41 42 44 45 47 47 46 48 50 50 49 50 52 50 48 48 47 46 47 48 49 51 49 48 48 46 44 44 46 46 40 34 35 37 37 38 41 43 42 41 39 37 37 38 39 37 36 36 31 26 25 25 25 23 20 17 16 14
31 29 28 29 31 32 33 34 35 36 37 38 39 40 41 42 42 43 42 43 46 44 43 47 47 47 47 47 48 46 43 43 45 45 48 49 47 49 51 52 51 51 53 52 50 51 53 51 49 49 52 54 53 51 51 50 47 46 47 46 39 35 37 38 38 41 44 43 40 41 42 39 37 38 39 38 37 36 32 27 25 25 27 26 23 21 19 17
31 30 30 31 33 35 36 36 36 37 38 39 40 41 42 43 44 44 44 45 47 46 46 49 48 48 49 49 49 48 47 48 48 48 50 51 51 51 51 53 52 52 53 52 51 52 55 53 49 49 54 56 55 54 53 51 49 47 46 43 37 36 38 40 42 44 45 42 40 40 42 40 38 39 39 37 35 34 32 30 30 29 27 26 25 24 23 21
34 34 34 34 35 37 39 39 39 40 41 41 42 42 43 44 45 46 45 47 49 48 48 49 49 50 51 52 52 50 51 54 53 52 53 53 53 54 54 54 54 55 55 55 54 53 55 56 51 50 53 56 56 54 53 50 47 45 42 38 35 38 41 42 45 46 45 43 41 41 41 40 40 38 37 35 34 34 33 33 33 31 28 25 22 24 25 24
37 37 37 38 39 39 41 42 42 42 43 44 45 45 46 46 47 48 47 48 50 50 51 51 50 52 53 55 57 55 54 57 56 56 57 57 56 57 58 58 57 57 58 58 58 55 56 57 55 52 52 54 54 52 49 46 43 42 39 36 37 40 44 46 48 48 47 45 42 41 41 41 38 34 32 33 34 36 35 35 34 31 30 28 23 24 27 27
40 40 40 41 41 42 43 44 45 46 46 47 47 48 48 48 49 50 50 51 50 50 53 54 51 53 55 57 61 60 57 60 59 58 60 61 59 58 58 60 60 60 62 62 61 58 57 57 57 55 53 52 51 48 46 43 42 41 39 38 40 43 47 50 51 50 48 46 43 41 41 39 35 31 31 34 35 37 36 35 36 34 34 33 29 27 29 30
42 42 42 43 44 44 45 46 47 48 49 49 50 50 50 50 50 51 52 53 52 50 53 56 55 56 58 60 63 62 60 62 62 60 61 63 63 62 61 62 62 62 64 65 63 62 59 57 57 55 53 52 48 44 44 44 43 42 41 42 45 49 53 54 54 52 48 46 44 41 37 36 35 32 33 36 38 38 36 36 38 39 38 35 31 29 28 30
44 44 45 45 46 47 48 49 50 50 51 52 52 51 51 52 53 52 53 54 53 53 55 57 58 59 60 61 63 62 59 62 64 63 62 63 65 65 66 67 64 63 66 66 64 63 61 58 57 55 53 52 48 45 46 47 46 46 48 50 51 54 56 56 56 53 49 46 44 42 39 38 36 34 35 39 41 41 38 38 39 39 39 36 33 31 27 27
46 47 48 48 48 49 50 51 53 53 54 54 53 53 52 53 54 54 55 57 55 55 57 59 59 60 59 60 63 63 60 61 66 65 64 66 68 67 69 70 68 66 68 67 64 63 61 59 57 56 55 53 50 50 49 49 51 54 55 56 56 56 58 58 56 54 52 49 46 45 44 43 42 41 41 42 44 44 39 36 38 40 41 40 35 31 28 27
49 50 51 51 51 52 53 54 56 56 56 56 54 54 54 54 55 54 57 58 56 55 57 58 59 59 59 60 63 65 62 62 67 68 66 68 69 68 68 69 69 68 68 68 66 64 63 60 57 57 57 53 52 53 52 50 52 56 57 57 57 56 57 57 57 57 55 52 49 48 48 46 46 46 45 44 45 45 38 36 40 43 44 43 36 32 33 33
50 52 53 54 54 55 56 57 59 58 58 57 55 55 55 54 54 55 57 59 57 56 56 57 59 59 60 61 63 67 64 61 65 68 68 68 68 67 67 67 68 68 67 66 65 65 65 61 57 56 57 56 55 54 53 51 51 55 57 56 56 56 57 59 60 59 57 54 52 51 50 49 49 48 47 46 46 45 40 39 43 45 44 42 38 37 37 35
52 54 55 56 56 58 59 60 61 60 59 58 56 56 56 55 55 54 56 59 58 58 58 58 58 60 61 63 65 69 69 66 68 71 72 72 71 71 70 69 70 69 69 67 65 66 66 63 58 56 57 59 58 55 54 53 53 57 59 57 58 58 59 60 62 61 60 57 54 53 53 52 53 54 52 50 48 47 44 42 44 44 40 38 38 39 38 35
54 55 57 58 58 60 62 62 63 61 59 58 56 57 56 56 58 56 56 60 60 59 60 60 60 62 64 65 68 72 73 72 73 76 76 76 76 77 76 75 75 74 74 73 69 66 66 64 58 55 58 61 59 57 57 55 56 59 60 58 58 60 61 62 64 63 62 61 58 56 55 56 58 59 58 56 55 54 52 48 44 42 41 42 44 45 42 40
57 56 58 61 62 63 64 64 64 62 60 59 58 58 58 57 59 59 58 61 63 62 62 63 64 65 66 67 69 73 75 75 76 79 80 79 79 81 81 80 80 79 78 78 76 71 68 66 60 56 60 63 61 60 60 60 60 61 61 60 60 62 64 65 66 65 65 64 63 60 58 60 61 60 60 60 56 54 54 53 49 47 49 51 50 48 45 45
59 58 60 63 65 65 66 65 65 62 61 61 60 60 60 61 63 63 61 62 65 67 66 66 67 68 68 70 71 73 76 77 78 80 80 80 82 84 85 83 82 82 82 82 81 77 72 69 63 60 63 65 63 63 63 63 64 63 62 63 64 64 66 69 68 67 68 69 66 64 63 63 63 63 63 61 56 55 57 57 56 54 56 55 52 50 50 50
62 62 63 66 67 66 66 66 65 63 62 62 63 63 63 65 66 68 67 66 68 70 70 69 70 71 72 72 73 75 77 78 79 80 81 82 85 87 87 85 82 82 84 85 85 82 77 73 68 64 66 67 66 67 67 67 68 67 65 65 67 68 68 70 71 70 72 72 68 68 69 68 68 68 68 65 62 63 63 60 60 61 61 60 58 57 57 57
65 66 66 67 68 67 67 66 65 64 63 63 65 66 67 67 69 70 71 72 72 72 72 72 73 74 74 74 75 77 79 80 80 81 83 85 87 89 88 86 82 82 86 87 86 84 82 79 75 70 68 69 68 69 70 71 72 72 68 66 68 70 71 73 74 74 75 73 70 72 73 70 70 72 73 70 67 66 65 62 62 64 64 64 62 60 59 60
68 68 68 69 70 69 68 66 66 66 65 65 66 68 70 71 72 73 75 77 76 75 75 75 76 77 77 77 77 79 81 82 82 83 85 87 89 90 89 87 84 84 86 87 86 86 85 84 81 76 71 70 70 72 74 75 77 76 72 69 69 71 73 77 79 78 77 74 73 77 76 72 72 75 77 76 71 69 68 67 68 70 70 69 67 62 60 62
70 69 69 70 71 71 69 67 67 68 68 69 69 70 72 75 76 76 77 79 80 79 78 78 80 81 80 80 79 80 83 84 85 86 86 88 90 91 91 89 86 84 86 87 88 89 89 87 85 80 74 70 70 74 77 79 80 79 76 74 74 74 76 79 80 81 79 76 77 80 77 74 75 77 78 79 77 75 74 74 75 76 75 72 71 67 63 65
71 70 71 72 72 71 70 69 69 70 71 72 73 74 75 77 79 79 79 79 82 84 84 82 82 83 84 83 82 82 84 86 87 88 88 90 92 93 94 92 88 87 88 89 91 93 92 89 86 82 77 72 70 74 78 80 81 80 78 77 78 79 80 82 84 83 82 81 81 81 79 78 77 78 78 80 80 80 80 80 79 79 78 75 73 71 67 67
73 72 72 73 73 72 70 70 71 73 75 75 75 77 78 79 81 83 83 83 84 86 86 85 84 84 85 85 85 85 86 87 88 90 91 92 93 95 96 95 94 93 92 92 93 96 95 91 87 84 79 74 74 76 79 82 82 82 79 77 78 80 83 85 87 86 85 86 84 80 81 82 80 78 78 80 82 83 83 83 82 81 81 79 77 75 70 69
75 74 73 73 75 74 73 73 73 74 77 78 78 79 81 82 84 86 87 88 87 87 87 86 86 86 87 88 89 89 90 90 90 92 93 94 95 96 99 100 100 100 100 98 96 95 94 91 88 86 81 77 78 81 81 82 83 82 81 80 79 80 83 86 87 85 86 88 85 80 82 84 81 78 79 81 83 85 86 86 85 85 85 83 80 78 75 72
77 76 75 74 76 76 76 77 78 78 79 81 82 83 84 85 86 88 90 90 89 89 90 89 89 88 89 92 94 94 96 95 94 94 96 97 98 100 103 105 105 106 105 101 97 96 93 89 87 86 82 79 82 85 84 83 82 82 82 81 81 82 85 87 87 85 87 89 87 83 82 83 81 79 81 83 87 89 88 87 87 88 88 85 83 81 80 77
79 78 77 76 76 78 79 80 81 83 84 85 86 86 87 88 89 90 91 92 92 92 93 93 92 91 92 96 98 99 100 100 98 98 99 100 102 104 106 107 107 107 105 101 99 97 93 87 85 85 82 81 84 87 88 86 84 83 81 79 80 84 88 89 88 88 90 90 88 86 84 82 81 83 85 87 89 91 91 89 89 90 88 86 86 85 83 81
82 81 79 78 78 80 82 83 86 88 89 90 90 89 90 92 92 93 94 95 95 95 96 96 96 95 97 100 102 102 103 104 103 103 103 104 106 107 108 108 106 105 105 103 101 99 94 88 84 83 83 82 84 88 89 88 88 85 79 77 80 86 89 90 90 91 91 91 90 90 87 83 83 87 90 90 91 92 92 92 92 92 89 87 87 86 85 85
84 83 82 82 84 86 89 90 92 93 94 94 94 94 95 95 95 97 97 97 98 99 99 99 100 100 101 104 106 106 106 107 108 108 108 109 110 109 108 107 106 105 105 104 101 98 94 89 86 85 86 84 83 86 89 90 89 82 77 78 83 87 89 90 91 91 91 90 91 91 89 87 87 89 92 93 93 93 94 94 93 92 89 88 88 89 89 89
Wind_Direction
342 336 332 330 330 331 330 331 333 336 341 344 346 347 345 343 341 344 349 355 358 359 0 2 4 5 6 4 3 3 3 3 2 2 3 2 3 5 9 10 11 13 14 14 12 13 14 14 14 13 19 21 18 22 26 29 31 32 34 36 37 35 37 38 39 39 37 34 27 20 5 219 195 196 193 193 199 198 193 194 200 209 216 224 235 240 239 234
332 329 327 328 329 329 329 328 327 327 330 334 338 339 340 341 341 343 346 350 354 356 356 357 358 359 0 0 359 359 359 360 359 358 359 359 1 2 5 8 10 12 13 13 12 12 13 13 12 12 18 18 15 19 23 26 27 29 31 33 35 35 35 35 37 38 38 36 33 28 21 13 202 207 199 195 198 196 196 197 200 209 215 221 235 240 239 237
330 328 326 327 328 329 330 329 327 326 325 326 329 331 332 335 339 341 343 345 347 351 352 353 353 353 354 355 354 355 356 356 355 354 354 356 359 0 3 5 8 10 11 12 12 12 12 11 10 11 15 15 14 18 21 23 25 26 28 30 32 34 35 34 34 36 37 37 36 34 28 22 12 228 214 205 202 199 202 203 204 215 221 227 238 241 239 238
331 329 327 326 326 326 327 327 327 326 325 325 325 326 327 329 332 335 337 339 340 343 346 349 350 348 348 348 348 348 351 353 353 351 350 351 354 357 360 2 5 7 9 10 11 12 11 10 9 9 11 12 13 17 19 20 22 24 26 27 28 30 33 34 34 33 34 35 37 38 37 30 23 9 257 218 216 209 209 209 212 222 224 227 237 241 242 242
325 325 324 323 322 321 320 320 322 322 323 324 325 325 325 325 326 328 330 333 334 336 339 343 345 345 343 342 342 342 345 348 349 348 347 346 348 353 357 359 2 4 6 8 10 11 11 9 7 7 9 10 12 16 17 17 20 22 24 24 24 26 29 32 34 34 32 32 33 36 40 39 35 29 15 315 225 220 219 218 221 228 225 227 237 244 250 249
315 315 314 314 313 312 312 313 315 317 318 320 322 324 325 324 324 325 326 329 330 331 334 337 339 341 341 338 337 336 338 342 345 345 343 343 344 348 353 356 358 1 3 5 7 8 9 9 7 6 7 8 12 14 15 16 17 19 21 22 22 23 25 27 31 33 32 30 30 31 34 39 41 39 30 18 332 240 234 230 230 237 233 230 239 252 260 259
313 313 312 311 310 310 311 313 314 315 317 318 320 323 323 323 323 323 325 327 328 329 331 332 333 334 337 337 334 331 332 337 340 342 340 340 342 344 348 353 355 357 360 2 4 5 6 7 7 5 5 7 10 12 13 14 15 15 17 18 19 21 21 22 25 29 31 30 29 28 29 33 37 38 35 27 2 327 295 270 239 235 236 235 244 267 276 273
314 315 316 316 315 315 316 317 318 318 318 318 320 322 323 322 321 321 323 325 327 328 328 327 327 328 330 332 333 330 329 331 337 339 338 338 340 343 345 349 352 355 356 358 360 2 2 4 6 5 5 5 7 9 10 11 12 13 13 14 15 17 18 18 20 22 26 28 29 29 27 27 31 34 34 33 22 357 326 308 288 245 238 244 251 280 294 289
315 317 318 319 319 320 320 320 321 322 322 321 322 324 324 323 321 320 321 323 326 328 327 327 325 325 325 326 330 331 328 328 333 336 337 337 339 341 343 346 349 352 353 355 356 358 358 359 2 3 4 4 5 6 8 9 9 10 10 11 12 14 15 15 17 18 20 22 24 27 27 25 25 26 30 34 32 20 356 329 318 309 259 247 259 269 282 290
314 315 316 317 317 318 318 319 320 322 323 324 325 326 327 326 324 322 321 322 324 326 327 327 326 326 325 324 326 328 329 329 331 333 334 336 338 339 342 343 346 349 350 351 352 353 355 355 357 0 2 3 3 3 5 6 6 7 8 10 11 11 12 13 15 16 17 19 19 21 25 25 22 19 21 30 34 30 18 352 331 328 327 340 310 287 264 261
312 312 312 312 313 313 313 314 315 318 321 322 324 325 326 326 325 324 323 323 324 325 326 326 326 326 325 325 325 326 328 329 330 331 331 333 336 337 340 342 343 347 348 348 349 350 351 351 352 356 358 360 360 359 1 3 4 4 5 6 8 7 8 10 11 13 14 16 17 16 18 19 19 17 16 22 30 32 29 15 348 328 321 326 326 313 268 241
312 312 311 311 310 310 310 310 311 313 316 318 319 321 322 322 322 322 322 322 322 323 324 323 323 324 324 324 324 325 326 328 329 329 328 330 333 335 338 341 341 343 345 346 346 347 348 347 348 351 354 355 356 356 357 359 0 2 2 3 5 4 5 8 8 8 9 10 12 12 12 11 12 18 19 18 23 27 30 26 11 345 312 302 311 316 281 264
313 313 312 312 311 310 309 309 308 309 311 313 314 316 317 317 317 317 317 318 318 319 319 320 320 320 321 321 321 322 324 327 328 326 326 328 330 332 335 338 339 340 341 343 344 345 345 344 344 346 349 351 352 352 353 355 357 358 359 0 1 1 2 4 5 5 5 4 6 7 7 6 5 11 17 16 16 19 26 29 23 8 336 283 286 300 295 285
312 313 313 312 312 311 310 309 308 308 308 310 311 312 313 313 314 313 313 313 314 315 315 316 316 316 317 317 318 320 322 326 327 326 326 327 328 330 332 334 335 336 337 339 342 343 343 343 342 342 344 346 347 348 348 351 353 353 355 356 356 357 357 357 358 1 3 2 2 3 3 3 1 2 8 11 11 12 18 26 26 22 13 310 277 287 304 309
309 311 312 313 313 313 312 311 310 309 308 309 309 310 311 311 311 311 311 311 312 312 313 314 315 316 316 315 317 319 322 326 329 328 327 327 327 328 330 331 332 333 334 336 338 340 341 341 340 339 340 341 343 345 345 346 350 351 350 351 351 351 351 352 353 355 0 2 1 1 0 360 359 356 359 4 6 8 12 18 21 25 24 354 296 281 289 308
310 313 315 316 317 317 316 314 313 311 311 310 310 310 310 310 310 310 311 313 313 314 315 316 317 320 318 316 319 321 323 328 329 329 328 327 327 327 328 329 330 331 332 334 335 336 338 339 338 338 337 338 340 341 342 343 346 349 347 345 346 346 346 348 351 353 357 360 359 358 358 357 355 352 352 354 358 3 8 12 14 19 22 15 343 284 262 271
313 316 317 319 320 322 321 319 316 314 313 313 312 311 312 312 311 313 316 317 318 319 319 319 320 324 322 318 320 322 323 328 328 328 328 326 325 325 326 327 328 329 331 332 332 333 336 338 338 337 336 336 337 338 339 340 343 346 344 339 340 343 343 343 347 350 352 354 354 355 356 355 352 350 348 345 348 355 0 6 9 10 13 18 14 317 247 236
314 315 317 318 320 323 323 321 320 318 316 316 315 315 315 317 315 316 321 321 321 322 321 319 319 324 324 319 319 322 323 326 327 326 326 325 324 324 324 326 327 327 330 330 329 332 334 335 336 336 335 335 336 336 336 338 340 341 341 335 335 339 341 340 342 345 347 348 349 350 352 352 351 348 344 340 341 348 352 356 359 4 7 10 17 5 268 231
312 313 314 315 317 320 321 321 320 319 319 318 318 318 318 320 318 317 321 322 321 321 320 320 318 320 322 320 319 320 322 323 324 324 323 323 323 322 323 324 325 326 328 328 328 330 331 333 335 336 333 333 334 334 333 335 337 337 336 332 330 333 336 337 340 340 338 340 342 344 346 348 348 347 344 339 337 340 344 346 348 356 3 1 7 14 356 256
310 311 311 311 313 315 317 317 317 316 316 316 316 317 317 318 318 317 317 319 319 318 318 318 317 318 320 319 318 319 321 321 321 322 321 320 320 320 322 322 321 324 326 325 325 328 331 331 333 333 329 329 330 329 329 330 332 333 332 329 326 328 332 334 338 336 329 330 334 337 341 342 344 345 344 341 335 332 333 336 340 345 354 358 358 4 14 343
308 309 309 309 309 311 313 313 313 313 313 313 314 314 314 314 316 315 314 315 317 317 316 316 316 317 317 317 317 318 319 319 319 320 320 318 318 319 320 319 319 323 323 321 322 328 330 327 327 328 324 324 324 324 324 324 326 328 328 326 321 323 328 330 336 332 321 321 326 330 334 337 339 340 342 343 338 331 326 326 332 336 339 351 355 353 4 8
306 307 307 307 307 308 310 310 311 311 311 311 311 311 312 313 313 313 313 313 314 315 313 313 315 316 316 316 316 315 315 316 318 319 319 317 316 318 319 318 318 321 320 319 321 328 328 321 321 322 319 319 320 319 320 321 321 322 323 320 316 320 324 327 335 329 315 315 321 325 328 331 334 336 338 340 339 334 327 322 321 323 328 338 346 349 351 0
305 306 307 307 307 307 309 310 310 310 311 311 311 311 311 312 312 312 312 312 312 313 311 311 314 314 315 315 314 314 314 315 315 316 318 315 314 316 318 317 318 318 317 318 320 324 323 316 314 316 315 315 316 316 316 317 318 318 317 314 312 316 321 326 331 323 313 313 318 322 323 325 329 331 331 334 334 333 329 322 314 310 317 326 331 336 344 349
306 308 309 308 308 308 309 310 311 311 311 311 311 311 311 311 311 310 310 310 311 312 310 311 313 313 313 313 313 314 315 316 314 313 317 314 311 314 316 315 316 315 315 316 317 318 314 309 310 312 311 310 310 311 311 312 313 312 309 308 310 314 319 324 322 313 309 310 314 318 318 319 323 325 326 327 328 329 328 322 314 309 308 313 317 319 328 339
308 309 310 309 309 309 309 311 312 312 312 312 312 311 310 310 310 309 309 308 310 310 310 312 313 311 311 310 311 312 313 315 313 313 316 312 309 313 314 313 313 313 313 313 314 315 311 308 309 307 305 304 304 304 304 304 305 304 303 304 308 313 316 317 312 302 303 308 312 314 313 315 318 319 321 322 321 324 326 320 313 308 304 301 302 304 310 322
307 308 308 308 309 310 311 312 314 314 313 313 313 311 310 310 308 308 308 308 308 309 310 312 312 310 310 310 310 310 310 312 310 312 313 309 309 312 312 311 311 311 310 310 312 313 310 306 303 301 301 300 300 300 300 300 301 300 299 301 306 311 310 308 301 294 299 307 311 310 309 311 314 315 317 316 315 317 322 320 313 309 306 299 293 292 298 309
305 307 309 310 312 313 313 314 315 315 314 313 312 311 310 308 308 307 307 307 306 307 309 309 308 309 310 310 309 308 309 308 308 309 309 307 309 310 309 308 309 308 307 308 310 309 305 301 299 299 299 297 297 298 298 298 299 298 298 301 305 307 303 299 294 293 298 304 308 306 304 308 312 311 312 311 310 313 318 318 312 311 310 304 295 290 292 297
304 306 309 311 313 314 313 314 315 314 313 313 311 310 309 307 307 306 306 306 305 306 307 305 306 308 308 308 307 308 309 307 306 307 306 305 306 306 305 305 305 305 305 306 307 305 301 299 299 300 299 297 297 298 297 298 298 297 297 299 302 303 297 292 290 292 296 301 305 303 300 306 309 307 306 305 305 309 313 313 311 311 310 306 301 294 289 288
303 305 307 310 312 313 313 314 314 312 312 311 310 309 308 307 306 305 306 306 304 306 306 305 306 307 307 307 306 308 309 307 306 307 306 305 305 305 304 304 305 306 305 306 306 303 300 300 302 302 300 298 298 298 298 298 297 295 295 297 299 297 290 287 288 290 294 298 301 299 298 303 304 304 304 302 300 303 307 308 309 311 310 308 304 294 286 283
302 303 305 308 310 312 313 313 313 312 311 310 309 308 307 307 306 305 307 305 304 306 305 305 308 307 306 307 306 309 310 307 307 309 307 307 307 307 306 307 308 308 307 307 305 303 302 302 304 302 299 298 298 298 298 298 297 296 296 296 294 290 286 285 288 291 294 297 298 297 296 298 300 302 300 295 294 298 301 305 308 311 312 310 303 291 282 278
301 303 305 308 309 311 312 312 312 311 310 310 309 308 307 307 306 306 307 304 305 307 306 307 309 307 307 307 306 309 310 307 309 310 308 308 308 308 308 308 309 309 308 306 305 305 304 303 303 301 298 297 296 297 297 298 299 299 299 296 291 287 285 286 289 292 294 295 295 295 295 296 299 301 294 287 289 294 300 306 306 306 304 300 293 283 277 273
301 303 305 307 308 310 310 311 310 309 309 308 308 307 306 306 306 307 307 305 306 308 306 307 309 307 308 307 305 308 310 308 309 310 308 308 307 306 307 307 308 309 306 304 304 305 304 301 301 300 298 296 296 298 299 298 297 297 296 292 287 284 283 286 288 289 291 292 292 292 294 295 296 295 286 281 283 289 299 303 299 296 296 297 295 287 278 274
300 302 304 306 307 308 309 309 308 308 307 307 306 306 306 306 306 306 306 305 307 308 307 307 309 307 307 307 305 308 310 309 308 309 307 306 306 306 306 305 307 308 303 302 304 303 301 300 298 299 298 296 296 297 296 294 294 293 289 285 283 283 284 286 286 287 289 288 288 289 289 290 291 287 281 280 279 284 293 295 289 289 293 297 298 290 278 274
300 302 303 304 306 307 307 307 307 307 306 305 305 305 305 305 305 306 305 305 307 309 308 306 306 306 306 306 306 307 309 308 307 306 305 304 304 305 306 305 307 307 304 303 303 300 299 298 297 297 295 293 292 289 287 288 288 286 283 282 282 283 284 284 284 285 285 283 283 284 283 283 283 278 276 278 279 283 291 289 283 286 291 293 291 286 277 270
300 301 302 304 305 306 306 306 306 306 305 305 304 303 303 303 304 305 305 305 307 307 306 304 304 305 305 306 306 306 308 308 305 304 305 304 303 304 305 305 306 307 306 304 301 298 297 297 295 293 292 291 289 285 283 283 282 281 280 281 282 282 281 281 282 282 281 280 279 279 279 278 276 273 273 274 277 283 287 284 281 286 291 291 286 279 275 271
300 301 302 303 305 305 305 306 306 306 305 304 303 302 302 302 303 304 304 303 304 304 303 303 303 304 304 305 305 304 306 307 305 305 306 305 304 306 306 305 305 306 307 305 300 296 295 294 293 291 290 288 285 284 284 282 280 280 279 280 279 279 280 280 280 279 279 279 278 277 277 276 275 274 273 274 277 280 281 280 281 285 288 287 281 275 276 275
300 301 301 303 304 304 304 305 305 305 304 303 302 301 301 302 301 302 302 301 301 301 301 302 302 303 304 305 305 305 306 308 307 307 308 307 307 308 309 308 309 309 309 306 301 296 294 293 291 289 288 286 283 282 283 282 280 279 278 277 277 277 278 278 278 278 278 279 278 277 277 276 275 274 273 275 277 277 277 278 280 282 281 278 277 278 277 271
300 300 300 301 302 302 303 304 304 304 304 302 301 300 301 301 300 301 300 299 300 301 301 302 303 304 306 307 308 308 309 310 310 310 310 310 310 311 311 312 314 314 312 308 303 299 297 294 291 289 288 285 283 281 280 280 279 277 276 277 277 277 276 276 277 277 278 278 277 277 277 277 276 274 275 276 277 278 278 277 278 278 274 271 276 281 277 268
299 299 298 299 301 301 302 303 304 304 303 302 301 300 301 301 299 300 300 299 300 302 302 303 304 305 307 308 308 308 309 311 311 309 309 310 310 311 312 314 316 316 314 311 306 302 299 296 292 291 288 285 283 282 279 278 277 276 277 278 279 278 277 276 276 277 279 279 278 277 277 277 276 277 278 277 277 279 277 275 275 272 267 268 276 278 274 271
298 298 297 298 299 300 301 303 303 303 302 301 301 301 301 300 299 300 300 300 301 302 302 304 305 305 306 307 307 308 309 310 309 308 308 309 308 309 311 313 315 315 314 312 309 305 302 299 294 290 286 284 284 283 280 278 276 276 277 277 277 277 277 276 277 279 280 279 279 279 278 278 278 279 280 280 280 279 276 275 274 268 264 268 272 270 269 272
296 297 296 297 298 299 301 302 302 303 302 301 301 301 301 300 300 300 301 301 301 302 303 304 304 305 306 307 308 308 308 308 308 307 307 306 306 307 309 312 314 313 312 312 311 308 305 302 297 290 285 284 284 282 281 280 279 277 277 276 276 275 276 277 278 280 280 279 280 280 280 279 279 279 278 279 278 277 276 277 276 271 268 269 270 268 268 269
295 296 296 296 298 299 300 301 301 302 301 301 301 301 301 301 302 302 303 302 302 303 304 305 305 305 307 307 308 308 307 307 306 306 305 304 304 306 308 311 312 311 311 312 311 309 306 303 299 291 284 283 283 283 282 281 279 277 276 276 276 276 276 276 277 277 277 278 280 281 281 280 280 280 278 278 277 276 276 277 276 274 272 272 271 269 268 267
295 295 296 296 297 299 300 301 301 300 300 300 300 300 301 301 302 303 303 303 303 303 304 304 305 305 306 307 307 307 306 305 305 304 304 304 304 305 307 309 311 309 309 310 310 308 306 302 299 295 287 282 281 281 281 280 278 276 275 275 275 276 276 275 274 274 275 277 279 279 278 279 280 280 279 278 277 276 276 276 275 275 274 274 273 270 269 268
295 296 297 297 298 299 301 301 300 299 300 300 300 300 301 302 303 303 303 303 303 303 303 303 303 303 304 305 305 305 304 304 304 304 303 303 303 304 306 307 309 308 308 308 307 306 304 301 299 298 291 284 281 280 279 278 276 276 276 276 275 274 274 274 274 274 275 276 276 276 276 277 278 278 278 278 277 276 275 274 274 274 274 274 274 273 271 269
296 297 297 298 298 300 300 300 299 299 299 300 300 301 301 302 303 303 304 304 303 303 302 302 301 301 302 302 303 304 304 304 304 303 303 302 302 303 304 306 307 306 305 305 304 303 301 299 299 299 293 287 283 281 279 277 276 276 276 276 275 274 273 273 274 274 275 275 274 274 276 276 276 275 276 277 277 276 275 274 274 274 274 274 275 275 273 269
296 297 297 298 298 299 299 299 299 298 298 299 300 300 301 302 302 303 304 304 303 302 302 301 300 301 301 302 303 303 304 303 303 303 303 302 302 303 303 304 305 304 303 302 301 300 299 297 298 297 293 286 282 281 281 280 278 277 276 276 275 275 274 274 274 274 274 274 273 274 276 275 273 274 275 275 276 276 275 275 275 275 276 275 274 274 272 269
295 296 297 297 297 297 297 297 297 297 297 298 299 300 301 302 302 303 303 302 302 302 301 301 300 300 301 302 303 304 303 303 303 304 303 303 302 302 302 303 303 302 301 300 298 298 297 296 296 295 291 284 281 281 281 279 279 278 277 276 275 274 274 274 274 274 274 273 273 274 275 273 272 272 273 274 274 275 274 274 275 275 275 274 273 272 272 269
295 295 296 296 296 296 296 295 295 295 296 298 299 299 300 301 301 301 301 302 302 301 301 301 300 301 302 303 303 303 303 303 304 305 304 302 302 301 301 301 301 301 299 298 296 295 294 294 293 292 288 283 282 281 280 278 277 276 277 276 275 275 274 273 273 273 273 273 273 272 272 272 272 272 272 272 272 272 272 273 274 274 273 274 274 274 272 269
294 294 295 295 295 295 295 294 295 295 296 297 298 299 299 300 300 300 300 301 301 301 300 300 300 301 303 303 303 303 304 305 305 305 303 302 301 300 299 299 299 298 297 296 294 292 291 291 290 288 285 283 282 282 280 276 275 274 275 275 275 275 274 273 273 273 272 272 272 271 270 271 272 272 271 270 269 270 270 271 272 273 274 275 275 274 273 271
293 293 294 294 294 294 294 294 295 296 296 296 297 298 299 299 299 300 300 300 300 300 300 300 301 301 302 302 303 304 304 305 304 303 302 301 299 298 297 296 296 295 295 294 293 291 289 288 286 284 282 282 282 282 279 276 275 274 274 274 274 274 273 273 273 272 271 271 272 271 271 271 271 269 268 267 268 270 271 271 271 272 273 275 275 274 273 272
292 293 293 293 294 294 294 295 295 296 297 297 298 298 298 299 299 299 299 300 300 300 300 301 301 301 301 302 303 304 304 303 303 302 301 299 297 296 295 294 294 294 293 293 292 291 289 286 283 280 279 280 281 280 278 276 275 275 275 275 273 271 270 270 270 270 271 272 272 272 272 271 269 268 267 267 268 269 271 271 271 272 273 274 273 273 271 270
291 291 292 292 293 293 294 294 295 296 296 297 297 298 298 298 299 299 299 299 300 300 300 301 301 301 302 302 302 303 303 302 301 300 299 297 296 296 295 294 293 293 292 292 291 289 287 284 282 280 279 279 278 277 275 274 274 275 276 274 271 269 269 269 269 269 270 270 270 270 270 270 268 268 268 269 269 270 270 270 270 271 273 272 271 270 269 268
Height
10851 10850 10850 10849 10848 10847 10846 10845 10843 10842 10841 10840 10838 10837 10835 10834 10832 10831 10830 10829 10827 10826 10824 10822 10820 10818 10817 10815 10813 10811 10809 10807 10805 10803 10801 10798 10796 10794 10792 10790 10787 10784 10782 10779 10776 10773 10771 10768 10766 10764 10759 10757 10757 10753 10749 10746 10744 10742 10740 10737 10734 10732 10730 10728 10726 10724 10724 10723 10723 10722 10722 10721 10721 10721 10721 10722 10722 10723 10724 10725 10726 10724 10722 10722 10722 10723 10724 10725
10851 10850 10849 10848 10848 10847 10846 10844 10843 10842 10841 10840 10838 10837 10835 10833 10832 10831 10829 10828 10827 10825 10823 10822 10820 10818 10816 10815 10813 10811 10809 10807 10805 10803 10801 10799 10796 10794 10792 10790 10788 10785 10783 10780 10777 10774 10771 10769 10767 10764 10760 10760 10758 10754 10751 10748 10746 10744 10742 10739 10737 10736 10734 10732 10729 10728 10727 10726 10725 10724 10723 10723 10722 10722 10723 10723 10722 10723 10723 10723 10722 10720 10719 10721 10722 10722 10723 10724
10850 10849 10848 10848 10847 10846 10845 10843 10842 10841 10840 10839 10838 10836 10835 10833 10832 10830 10829 10827 10826 10825 10823 10821 10819 10818 10816 10814 10813 10811 10809 10807 10805 10803 10801 10799 10797 10794 10792 10790 10788 10786 10783 10781 10778 10775 10773 10771 10768 10764 10763 10762 10759 10755 10752 10750 10748 10746 10743 10742 10741 10739 10737 10735 10733 10731 10730 10729 10727 10726 10725 10724 10723 10723 10723 10722 10722 10722 10722 10721 10721 10720 10720 10722 10722 10721 10722 10723
10850 10849 10848 10847 10846 10845 10844 10843 10841 10840 10839 10838 10837 10835 10834 10833 10831 10830 10828 10827 10825 10824 10822 10821 10819 10817 10816 10814 10812 10811 10809 10807 10805 10803 10801 10799 10797 10795 10792 10790 10788 10786 10784 10781 10779 10777 10775 10772 10769 10766 10764 10763 10760 10756 10753 10752 10750 10747 10745 10744 10743 10741 10740 10738 10736 10735 10733 10732 10730 10728 10727 10726 10725 10724 10723 10723 10723 10723 10722 10722 10722 10720 10720 10721 10721 10720 10720 10721
10849 10848 10847 10846 10845 10844 10843 10842 10841 10839 10838 10837 10836 10834 10833 10832 10830 10829 10827 10826 10824 10823 10822 10820 10819 10817 10815 10813 10812 10810 10808 10807 10805 10802 10800 10799 10797 10795 10793 10790 10788 10786 10784 10782 10780 10778 10775 10773 10770 10768 10765 10763 10760 10757 10756 10754 10751 10749 10747 10746 10745 10743 10742 10740 10739 10737 10736 10734 10732 10730 10729 10727 10726 10725 10725 10724 10723 10723 10723 10723 10723 10720 10720 10722 10721 10720 10719 10719
10848 10847 10846 10845 10844 10843 10842 10841 10840 10838 10837 10836 10835 10833 10832 10831 10830 10828 10827 10825 10824 10822 10821 10819 10818 10816 10815 10813 10811 10810 10808 10806 10804 10802 10800 10798 10797 10795 10793 10790 10788 10786 10784 10782 10780 10778 10776 10774 10771 10768 10767 10764 10761 10758 10757 10755 10753 10751 10749 10748 10747 10745 10743 10742 10740 10739 10737 10736 10734 10732 10730 10729 10728 10727 10726 10725 10724 10723 10723 10723 10723 10721 10721 10722 10721 10720 10719 10718
10847 10846 10845 10844 10843 10842 10841 10840 10839 10837 10836 10835 10833 10832 10831 10830 10829 10827 10826 10824 10823 10822 10820 10818 10817 10816 10814 10812 10811 10809 10807 10806 10804 10802 10800 10798 10796 10794 10793 10791 10788 10786 10784 10783 10781 10779 10777 10775 10772 10770 10767 10764 10761 10759 10757 10755 10754 10752 10751 10750 10748 10746 10745 10743 10742 10740 10739 10737 10736 10734 10733 10731 10729 10727 10726 10726 10725 10724 10723 10722 10722 10720 10720 10721 10721 10721 10720 10718
10846 10845 10844 10843 10842 10841 10839 10838 10837 10836 10835 10833 10832 10831 10830 10829 10827 10826 10825 10824 10822 10821 10819 10817 10816 10814 10813 10812 10810 10808 10806 10805 10803 10801 10799 10798 10796 10794 10792 10791 10789 10787 10785 10783 10781 10779 10777 10776 10774 10772 10769 10765 10763 10760 10758 10756 10755 10754 10752 10750 10748 10746 10745 10744 10742 10741 10739 10738 10737 10735 10734 10732 10731 10729 10727 10725 10724 10723 10722 10721 10720 10720 10719 10719 10719 10719 10719 10719
10845 10844 10843 10842 10840 10839 10838 10836 10835 10834 10833 10832 10831 10829 10828 10827 10826 10825 10824 10822 10821 10820 10818 10816 10815 10813 10812 10810 10809 10808 10806 10804 10802 10801 10799 10797 10795 10794 10792 10790 10789 10787 10785 10783 10781 10779 10778 10776 10774 10772 10770 10767 10764 10762 10760 10758 10756 10755 10754 10751 10749 10747 10746 10744 10743 10742 10740 10739 10737 10736 10734 10733 10732 10730 10728 10726 10724 10723 10721 10721 10720 10719 10718 10718 10718 10717 10717 10718
10843 10842 10841 10840 10839 10838 10836 10835 10833 10833 10832 10830 10829 10828 10827 10825 10824 10823 10822 10821 10820 10819 10817 10815 10813 10812 10810 10809 10808 10807 10805 10803 10802 10800 10798 10797 10795 10793 10791 10790 10788 10787 10785 10783 10781 10779 10778 10776 10774 10772 10770 10768 10766 10763 10762 10760 10758 10756 10754 10752 10751 10749 10747 10745 10744 10743 10742 10740 10738 10736 10735 10734 10733 10732 10730 10727 10725 10723 10721 10720 10719 10718 10718 10717 10716 10716 10715 10715
10841 10840 10839 10838 10837 10836 10835 10833 10832 10831 10830 10829 10827 10826 10825 10824 10823 10822 10821 10820 10818 10817 10816 10814 10812 10810 10809 10808 10807 10806 10804 10802 10801 10799 10797 10796 10794 10792 10791 10789 10787 10787 10785 10783 10781 10779 10777 10775 10774 10772 10770 10768 10767 10764 10762 10761 10759 10756 10754 10753 10751 10750 10749 10747 10745 10744 10743 10741 10739 10737 10736 10734 10733 10732 10731 10728 10725 10723 10721 10720 10719 10718 10718 10716 10715 10716 10715 10714
10839 10838 10837 10836 10835 10834 10833 10831 10830 10829 10828 10827 10826 10825 10824 10822 10821 10820 10819 10818 10817 10816 10814 10813 10811 10809 10807 10806 10805 10804 10803 10802 10800 10798 10796 10794 10793 10791 10790 10788 10787 10785 10784 10783 10781 10779 10777 10775 10773 10772 10770 10769 10767 10765 10763 10761 10759 10758 10755 10753 10752 10751 10749 10748 10746 10745 10743 10741 10739 10737 10736 10735 10734 10732 10731 10729 10726 10724 10722 10720 10719 10718 10718 10717 10716 10716 10715 10714
10838 10837 10835 10834 10833 10832 10831 10830 10828 10827 10826 10825 10824 10823 10822 10821 10819 10818 10817 10816 10815 10814 10813 10811 10810 10808 10806 10804 10803 10803 10802 10801 10799 10797 10794 10793 10791 10790 10789 10787 10786 10784 10783 10782 10781 10779 10777 10774 10772 10771 10770 10768 10767 10765 10764 10762 10760 10758 10756 10754 10753 10752 10750 10749 10747 10745 10742 10740 10738 10737 10735 10734 10733 10731 10730 10728 10727 10725 10722 10720 10719 10718 10718 10717 10717 10717 10715 10714
10836 10835 10833 10832 10831 10830 10829 10828 10826 10825 10824 10823 10822 10821 10820 10819 10818 10817 10816 10815 10814 10812 10811 10810 10808 10806 10805 10803 10801 10801 10800 10799 10798 10795 10793 10791 10790 10788 10787 10786 10784 10783 10782 10781 10780 10778 10776 10774 10772 10770 10769 10767 10766 10765 10763 10762 10760 10758 10756 10754 10753 10753 10751 10750 10748 10745 10742 10739 10737 10736 10734 10733 10732 10730 10729 10727 10726 10725 10723 10721 10720 10719 10718 10717 10717 10717 10715 10714
10834 10833 10832 10830 10829 10828 10828 10826 10825 10823 10822 10821 10820 10819 10818 10817 10816 10815 10814 10813 10812 10810 10809 10808 10807 10805 10803 10801 10800 10799 10798 10797 10796 10794 10792 10790 10788 10787 10786 10784 10783 10782 10780 10779 10778 10777 10776 10774 10771 10769 10767 10766 10765 10764 10762 10761 10760 10758 10755 10754 10753 10751 10750 10749 10747 10744 10741 10739 10736 10735 10733 10732 10731 10730 10729 10727 10726 10725 10723 10722 10720 10719 10718 10717 10716 10715 10714 10713
10832 10831 10830 10829 10827 10827 10826 10825 10823 10822 10820 10819 10818 10817 10816 10815 10814 10813 10812 10811 10810 10809 10807 10806 10805 10804 10802 10799 10798 10797 10796 10795 10794 10792 10790 10788 10786 10785 10784 10782 10781 10780 10778 10777 10776 10775 10774 10773 10771 10768 10766 10764 10763 10762 10761 10759 10758 10757 10755 10753 10751 10749 10747 10746 10745 10742 10740 10738 10736 10734 10732 10731 10729 10728 10727 10727 10725 10724 10723 10722 10720 10719 10718 10717 10716 10715 10715 10713
10831 10830 10829 10827 10826 10825 10824 10823 10822 10820 10819 10818 10817 10815 10814 10813 10812 10811 10810 10809 10808 10807 10805 10804 10803 10803 10801 10797 10796 10795 10793 10793 10792 10790 10788 10786 10785 10783 10782 10781 10779 10778 10776 10775 10773 10772 10772 10771 10769 10767 10765 10763 10761 10760 10759 10757 10756 10755 10754 10751 10750 10748 10744 10741 10740 10739 10738 10736 10735 10733 10732 10730 10728 10727 10726 10725 10724 10723 10722 10721 10720 10719 10718 10717 10716 10715 10715 10714
10829 10828 10827 10826 10825 10824 10823 10822 10820 10819 10818 10816 10815 10814 10813 10812 10810 10809 10809 10807 10806 10805 10803 10801 10800 10801 10800 10796 10794 10793 10792 10791 10789 10788 10786 10785 10783 10781 10780 10779 10777 10776 10774 10773 10771 10770 10769 10768 10768 10766 10763 10761 10759 10758 10756 10755 10754 10753 10752 10750 10748 10747 10744 10740 10738 10737 10736 10736 10735 10733 10732 10731 10728 10726 10725 10724 10723 10722 10721 10720 10720 10719 10718 10717 10716 10715 10715 10714
10828 10827 10825 10824 10823 10822 10822 10820 10819 10818 10816 10815 10813 10812 10811 10810 10808 10806 10806 10806 10804 10802 10801 10799 10797 10798 10799 10795 10791 10790 10790 10789 10787 10786 10784 10783 10781 10779 10778 10776 10775 10774 10772 10771 10769 10768 10767 10766 10765 10764 10761 10759 10757 10756 10754 10753 10752 10750 10750 10749 10747 10746 10744 10741 10738 10736 10735 10734 10733 10732 10732 10731 10728 10726 10724 10722 10721 10720 10720 10720 10719 10718 10718 10718 10717 10715 10714 10713
10826 10825 10824 10822 10821 10820 10820 10819 10817 10816 10815 10813 10812 10810 10808 10808 10807 10804 10803 10803 10802 10799 10798 10798 10795 10794 10795 10794 10791 10788 10786 10786 10785 10783 10781 10780 10779 10777 10776 10774 10773 10771 10770 10769 10767 10765 10764 10762 10762 10761 10759 10757 10755 10754 10752 10750 10749 10748 10747 10746 10745 10743 10743 10741 10738 10736 10733 10732 10731 10731 10731 10730 10728 10726 10724 10722 10720 10720 10719 10719 10719 10718 10717 10718 10717 10716 10715 10713
10824 10823 10822 10821 10819 10818 10818 10817 10816 10814 10813 10812 10810 10809 10807 10805 10805 10802 10799 10799 10800 10797 10794 10794 10793 10791 10790 10791 10790 10787 10784 10782 10781 10780 10778 10776 10776 10775 10774 10771 10770 10769 10767 10766 10765 10764 10761 10759 10759 10759 10757 10755 10753 10751 10750 10748 10747 10746 10745 10743 10742 10741 10740 10739 10737 10735 10733 10730 10729 10729 10729 10729 10728 10726 10724 10722 10720 10719 10718 10718 10717 10717 10717 10717 10717 10716 10715 10714
10823 10822 10821 10819 10817 10816 10815 10814 10813 10812 10811 10809 10808 10807 10805 10803 10802 10800 10797 10795 10796 10796 10792 10790 10790 10788 10786 10785 10786 10785 10783 10781 10779 10777 10775 10772 10771 10772 10771 10768 10766 10766 10765 10762 10762 10761 10760 10756 10756 10757 10755 10752 10751 10748 10747 10745 10744 10743 10742 10741 10739 10738 10737 10736 10735 10734 10731 10729 10727 10726 10725 10726 10726 10725 10723 10721 10720 10718 10717 10716 10716 10716 10716 10716 10716 10716 10715 10714
10822 10821 10819 10818 10816 10814 10813 10812 10811 10810 10808 10807 10806 10804 10803 10802 10800 10798 10796 10792 10791 10792 10790 10789 10787 10785 10783 10780 10780 10780 10779 10778 10777 10776 10774 10768 10766 10768 10767 10766 10763 10762 10761 10760 10759 10758 10757 10754 10752 10754 10753 10750 10748 10746 10744 10742 10741 10739 10739 10738 10737 10735 10735 10733 10732 10731 10730 10727 10725 10724 10723 10722 10723 10723 10722 10720 10719 10718 10716 10715 10714 10715 10715 10714 10714 10714 10714 10714
10820 10819 10818 10816 10814 10812 10810 10810 10808 10807 10806 10805 10803 10802 10800 10799 10798 10795 10794 10791 10788 10786 10785 10787 10786 10783 10781 10778 10775 10775 10775 10773 10771 10772 10773 10765 10761 10764 10763 10762 10761 10758 10757 10757 10756 10755 10753 10749 10748 10750 10749 10748 10745 10743 10741 10740 10738 10736 10735 10735 10734 10732 10731 10731 10730 10729 10728 10726 10724 10723 10721 10719 10719 10719 10719 10718 10717 10716 10715 10714 10712 10712 10713 10713 10713 10712 10712 10713
10817 10817 10816 10814 10813 10811 10808 10808 10807 10805 10803 10802 10801 10799 10798 10796 10795 10793 10791 10788 10788 10784 10779 10781 10781 10779 10778 10776 10774 10772 10771 10770 10765 10765 10769 10763 10757 10759 10759 10757 10757 10755 10753 10752 10752 10751 10750 10746 10744 10744 10744 10743 10742 10739 10738 10737 10736 10733 10730 10731 10731 10730 10728 10728 10728 10726 10725 10723 10721 10721 10721 10718 10716 10715 10716 10715 10715 10714 10714 10713 10711 10711 10711 10711 10711 10711 10710 10711
10815 10815 10814 10812 10811 10810 10807 10805 10805 10803 10801 10800 10798 10796 10795 10793 10791 10790 10788 10785 10784 10783 10779 10775 10775 10774 10773 10772 10771 10770 10769 10767 10762 10760 10762 10759 10755 10754 10754 10753 10752 10750 10748 10748 10748 10747 10745 10743 10742 10740 10739 10738 10738 10736 10734 10733 10732 10729 10726 10726 10728 10727 10725 10725 10725 10723 10722 10720 10718 10717 10718 10717 10714 10712 10712 10712 10711 10712 10712 10711 10709 10708 10709 10709 10709 10709 10709 10708
10812 10812 10811 10810 10808 10807 10806 10804 10802 10801 10798 10797 10796 10794 10792 10790 10788 10786 10785 10782 10779 10780 10779 10773 10770 10769 10768 10767 10765 10765 10766 10763 10760 10758 10755 10753 10753 10751 10748 10748 10748 10746 10743 10743 10744 10742 10740 10739 10738 10737 10735 10732 10732 10731 10729 10728 10729 10725 10721 10722 10723 10723 10722 10721 10720 10719 10718 10718 10716 10713 10712 10715 10713 10709 10708 10707 10707 10708 10709 10708 10706 10705 10705 10706 10707 10707 10706 10706
10809 10809 10809 10807 10805 10803 10803 10802 10800 10798 10796 10794 10792 10790 10788 10786 10784 10782 10781 10779 10775 10775 10775 10770 10767 10766 10764 10763 10760 10759 10761 10759 10756 10755 10751 10748 10749 10747 10744 10742 10742 10741 10739 10738 10739 10736 10733 10733 10733 10732 10730 10727 10726 10726 10724 10723 10723 10721 10718 10717 10718 10718 10717 10717 10716 10715 10714 10714 10714 10710 10706 10710 10710 10707 10705 10704 10703 10703 10705 10705 10704 10703 10702 10702 10703 10704 10703 10703
10806 10805 10805 10804 10803 10800 10798 10798 10797 10795 10794 10792 10789 10787 10784 10782 10780 10778 10777 10774 10770 10771 10769 10764 10764 10762 10759 10758 10756 10755 10755 10753 10752 10751 10747 10744 10743 10742 10740 10737 10736 10735 10734 10733 10733 10731 10726 10726 10729 10727 10723 10720 10720 10719 10718 10717 10717 10716 10714 10713 10713 10713 10713 10712 10712 10711 10710 10710 10711 10707 10703 10705 10705 10703 10701 10700 10699 10699 10700 10701 10701 10701 10701 10701 10701 10701 10701 10701
10802 10801 10801 10800 10799 10797 10795 10793 10793 10791 10789 10788 10786 10783 10780 10778 10775 10773 10774 10770 10765 10766 10764 10761 10760 10757 10754 10752 10750 10752 10750 10746 10746 10745 10742 10739 10737 10735 10734 10732 10731 10729 10727 10726 10726 10726 10721 10718 10722 10723 10718 10714 10714 10713 10711 10711 10710 10710 10709 10709 10708 10708 10708 10708 10707 10705 10705 10706 10705 10703 10701 10700 10700 10699 10696 10694 10695 10695 10696 10697 10698 10698 10697 10698 10699 10697 10696 10697
10798 10797 10796 10796 10795 10793 10791 10789 10788 10787 10785 10782 10781 10779 10776 10774 10771 10768 10768 10766 10762 10760 10757 10756 10757 10753 10750 10747 10742 10746 10747 10740 10739 10739 10735 10734 10733 10731 10727 10726 10725 10723 10721 10719 10718 10719 10717 10713 10713 10715 10714 10710 10708 10707 10706 10705 10704 10704 10704 10703 10703 10703 10702 10702 10702 10700 10700 10701 10700 10698 10696 10696 10696 10696 10693 10690 10689 10691 10693 10694 10694 10695 10694 10694 10695 10693 10692 10693
10794 10793 10792 10790 10789 10788 10787 10785 10783 10781 10780 10778 10776 10774 10771 10769 10766 10763 10762 10759 10758 10758 10752 10750 10752 10748 10746 10743 10736 10737 10740 10735 10733 10734 10729 10726 10726 10726 10724 10720 10719 10718 10714 10712 10711 10711 10711 10709 10707 10706 10706 10705 10703 10702 10700 10698 10698 10698 10698 10698 10697 10697 10696 10695 10695 10695 10695 10695 10694 10693 10692 10691 10692 10692 10690 10686 10685 10687 10691 10692 10690 10689 10689 10689 10690 10690 10689 10689
10789 10789 10787 10786 10784 10783 10782 10780 10778 10776 10774 10772 10770 10768 10766 10763 10761 10759 10756 10753 10752 10753 10749 10745 10745 10743 10741 10738 10731 10731 10733 10728 10726 10728 10724 10720 10716 10717 10717 10715 10715 10713 10707 10705 10704 10704 10704 10703 10701 10700 10698 10696 10697 10696 10694 10693 10693 10693 10692 10692 10692 10690 10689 10689 10688 10689 10690 10689 10688 10689 10689 10688 10688 10688 10686 10682 10681 10684 10688 10688 10685 10684 10685 10686 10686 10686 10685 10686
10785 10784 10782 10781 10780 10778 10776 10774 10773 10771 10769 10766 10764 10762 10760 10758 10755 10754 10751 10747 10747 10746 10744 10740 10739 10737 10736 10732 10726 10726 10729 10723 10719 10720 10719 10715 10711 10709 10707 10705 10707 10706 10699 10698 10698 10695 10695 10695 10694 10694 10693 10690 10690 10691 10689 10688 10688 10687 10686 10685 10686 10684 10682 10682 10682 10682 10684 10683 10683 10684 10684 10685 10684 10683 10682 10679 10676 10679 10684 10682 10679 10679 10679 10681 10682 10681 10681 10682
10780 10778 10777 10776 10774 10772 10771 10769 10767 10766 10763 10761 10758 10755 10754 10752 10749 10748 10745 10741 10742 10741 10738 10734 10733 10731 10729 10727 10721 10718 10722 10719 10712 10712 10713 10707 10704 10705 10701 10697 10698 10696 10690 10690 10691 10687 10687 10688 10688 10686 10687 10687 10684 10683 10684 10684 10682 10680 10679 10678 10679 10678 10675 10675 10676 10675 10675 10677 10678 10678 10678 10679 10678 10677 10677 10675 10672 10674 10679 10676 10673 10673 10674 10674 10677 10677 10676 10677
10775 10772 10771 10769 10768 10766 10765 10764 10761 10760 10757 10755 10753 10749 10749 10746 10743 10743 10739 10735 10736 10736 10733 10729 10727 10725 10723 10721 10716 10712 10716 10715 10705 10704 10707 10702 10697 10698 10695 10691 10691 10689 10683 10681 10681 10680 10679 10681 10681 10679 10678 10680 10679 10676 10676 10679 10676 10672 10672 10672 10671 10670 10668 10667 10668 10667 10668 10670 10672 10672 10672 10672 10671 10669 10669 10670 10668 10668 10673 10671 10666 10667 10668 10667 10670 10672 10672 10672
10770 10767 10765 10763 10762 10759 10758 10757 10755 10754 10751 10749 10747 10743 10742 10741 10738 10737 10733 10729 10729 10729 10727 10724 10721 10719 10717 10715 10710 10704 10709 10711 10703 10698 10698 10695 10693 10691 10688 10685 10682 10680 10677 10674 10672 10671 10671 10674 10675 10673 10671 10671 10671 10670 10670 10671 10670 10666 10664 10664 10663 10663 10661 10659 10659 10659 10660 10663 10665 10664 10664 10665 10664 10662 10662 10663 10663 10662 10666 10666 10661 10659 10661 10661 10663 10665 10666 10667
10765 10762 10758 10758 10757 10753 10752 10751 10748 10747 10745 10742 10741 10737 10736 10734 10732 10732 10728 10722 10722 10722 10720 10718 10716 10713 10710 10708 10704 10696 10697 10701 10697 10692 10690 10687 10685 10684 10682 10679 10676 10672 10668 10665 10665 10663 10662 10667 10669 10666 10663 10661 10661 10663 10663 10663 10661 10657 10656 10656 10655 10654 10654 10651 10650 10651 10652 10655 10658 10658 10657 10657 10656 10654 10655 10656 10657 10656 10658 10659 10657 10654 10654 10655 10656 10658 10660 10662
10759 10757 10752 10750 10751 10748 10745 10744 10741 10740 10738 10736 10734 10731 10730 10727 10723 10725 10724 10716 10715 10716 10713 10711 10709 10707 10703 10701 10698 10691 10688 10690 10686 10681 10680 10679 10676 10675 10674 10672 10670 10666 10660 10654 10656 10656 10654 10657 10663 10661 10655 10651 10652 10654 10655 10655 10653 10648 10648 10651 10648 10645 10645 10643 10641 10642 10644 10645 10648 10651 10652 10649 10646 10647 10647 10647 10650 10650 10649 10650 10651 10650 10648 10648 10650 10652 10654 10655
10752 10752 10746 10742 10743 10741 10738 10737 10735 10733 10731 10729 10727 10724 10723 10722 10716 10717 10718 10710 10707 10708 10707 10704 10701 10699 10697 10694 10691 10686 10681 10681 10679 10673 10669 10668 10667 10665 10665 10665 10661 10657 10655 10649 10645 10647 10647 10647 10654 10655 10646 10642 10644 10644 10644 10644 10643 10641 10641 10643 10641 10637 10635 10633 10632 10634 10634 10635 10637 10640 10643 10641 10639 10640 10638 10637 10640 10641 10639 10641 10643 10644 10642 10642 10644 10646 10647 10648
10744 10745 10742 10736 10735 10734 10732 10730 10727 10726 10724 10721 10720 10718 10715 10713 10710 10709 10711 10707 10700 10698 10698 10697 10693 10690 10688 10686 10684 10680 10675 10672 10670 10666 10662 10658 10656 10654 10655 10658 10654 10645 10644 10643 10637 10637 10639 10637 10641 10644 10638 10634 10635 10634 10634 10634 10632 10633 10634 10633 10631 10630 10627 10623 10625 10627 10623 10623 10628 10630 10631 10632 10631 10632 10630 10629 10631 10631 10630 10632 10633 10632 10632 10634 10638 10639 10639 10640
10736 10737 10735 10730 10728 10727 10725 10724 10721 10718 10717 10713 10712 10711 10709 10706 10702 10699 10700 10700 10696 10691 10689 10688 10684 10681 10680 10678 10674 10671 10668 10665 10662 10658 10654 10649 10645 10644 10644 10647 10647 10636 10631 10632 10629 10629 10630 10626 10629 10633 10629 10627 10627 10624 10623 10623 10621 10622 10625 10625 10621 10620 10620 10616 10615 10617 10613 10613 10620 10620 10619 10622 10622 10621 10621 10622 10624 10622 10621 10624 10622 10620 10621 10624 10630 10632 10630 10630
10730 10729 10727 10724 10721 10721 10719 10717 10714 10711 10710 10708 10704 10701 10700 10699 10697 10692 10690 10689 10688 10686 10682 10679 10675 10671 10670 10669 10666 10663 10658 10657 10656 10650 10646 10641 10635 10635 10636 10637 10637 10629 10622 10621 10620 10620 10619 10615 10616 10620 10620 10619 10619 10615 10612 10610 10608 10608 10614 10618 10614 10611 10610 10605 10603 10606 10605 10608 10612 10609 10608 10613 10614 10610 10608 10611 10615 10612 10611 10614 10611 10608 10610 10613 10618 10623 10622 10620
10724 10722 10720 10715 10712 10713 10713 10710 10706 10702 10702 10701 10699 10695 10690 10689 10689 10687 10682 10678 10678 10678 10675 10671 10667 10663 10662 10660 10658 10655 10649 10647 10647 10643 10638 10633 10626 10625 10627 10627 10628 10622 10615 10612 10611 10610 10609 10604 10604 10608 10609 10609 10609 10604 10600 10597 10595 10596 10603 10607 10606 10603 10599 10592 10590 10592 10595 10603 10603 10594 10597 10607 10606 10600 10596 10598 10602 10603 10601 10602 10601 10598 10599 10601 10604 10612 10615 10611
10715 10714 10713 10708 10703 10702 10703 10702 10699 10695 10693 10692 10691 10689 10684 10681 10678 10678 10677 10671 10666 10666 10666 10664 10658 10654 10653 10651 10649 10647 10641 10637 10636 10634 10631 10624 10618 10616 10616 10618 10619 10613 10607 10604 10601 10599 10598 10595 10595 10596 10596 10598 10598 10591 10585 10584 10584 10586 10592 10594 10592 10592 10589 10583 10580 10579 10584 10592 10589 10582 10588 10597 10595 10590 10588 10587 10588 10590 10590 10590 10589 10587 10588 10591 10592 10600 10606 10602
10708 10707 10704 10699 10697 10695 10693 10692 10690 10686 10684 10684 10682 10679 10677 10674 10669 10668 10669 10666 10659 10654 10654 10654 10651 10646 10642 10641 10640 10638 10634 10629 10625 10623 10622 10616 10610 10606 10603 10606 10608 10604 10601 10596 10589 10586 10587 10586 10586 10585 10585 10587 10586 10579 10572 10570 10571 10574 10580 10583 10581 10578 10575 10571 10568 10569 10573 10574 10574 10577 10580 10582 10582 10581 10580 10578 10575 10575 10576 10575 10576 10575 10576 10580 10582 10585 10591 10591
10699 10700 10697 10691 10688 10689 10688 10685 10682 10676 10673 10674 10673 10670 10667 10665 10660 10657 10657 10657 10654 10647 10643 10642 10640 10637 10633 10629 10628 10627 10623 10620 10617 10614 10611 10607 10603 10596 10591 10592 10594 10593 10592 10588 10582 10577 10574 10575 10576 10573 10573 10574 10572 10568 10562 10557 10557 10560 10565 10570 10570 10566 10562 10557 10554 10558 10559 10555 10561 10572 10568 10562 10569 10573 10571 10569 10564 10561 10560 10560 10563 10564 10563 10566 10568 10570 10578 10580
10690 10690 10690 10684 10678 10677 10678 10677 10675 10671 10665 10663 10663 10661 10658 10655 10652 10647 10644 10644 10645 10640 10636 10633 10629 10626 10622 10617 10615 10614 10611 10609 10609 10606 10601 10596 10593 10587 10581 10579 10579 10578 10577 10576 10575 10569 10564 10565 10564 10558 10560 10563 10559 10555 10551 10546 10545 10547 10550 10554 10556 10554 10549 10544 10542 10546 10546 10539 10547 10560 10555 10547 10556 10563 10562 10558 10552 10547 10547 10548 10550 10550 10549 10552 10555 10558 10563 10566
10682 10680 10680 10678 10672 10668 10667 10665 10663 10662 10659 10656 10654 10652 10649 10645 10642 10638 10633 10632 10632 10628 10625 10623 10621 10618 10612 10604 10601 10600 10596 10596 10599 10596 10590 10586 10583 10577 10570 10568 10566 10563 10560 10561 10560 10556 10555 10557 10552 10545 10546 10550 10546 10540 10537 10534 10533 10535 10538 10541 10542 10539 10532 10528 10530 10534 10531 10525 10530 10542 10542 10540 10546 10550 10549 10544 10536 10533 10535 10538 10539 10535 10536 10540 10542 10545 10548 10551
10673 10672 10671 10669 10665 10661 10658 10655 10653 10651 10649 10646 10645 10643 10639 10635 10631 10628 10624 10620 10619 10617 10612 10609 10610 10609 10602 10592 10589 10588 10583 10582 10584 10583 10579 10575 10570 10565 10559 10557 10556 10549 10545 10545 10542 10538 10542 10546 10542 10534 10533 10537 10535 10524 10518 10519 10520 10523 10529 10532 10530 10523 10515 10512 10515 10517 10514 10512 10517 10522 10526 10534 10539 10533 10529 10528 10524 10521 10522 10526 10526 10523 10526 10530 10528 10530 10533 10534
10663 10662 10662 10660 10657 10653 10650 10647 10644 10641 10638 10635 10635 10633 10628 10624 10621 10616 10613 10610 10606 10604 10601 10597 10595 10595 10590 10582 10577 10577 10574 10569 10568 10569 10567 10562 10556 10552 10548 10545 10544 10539 10532 10529 10525 10521 10522 10528 10529 10524 10521 10528 10525 10509 10502 10504 10504 10510 10522 10524 10515 10505 10500 10500 10501 10500 10500 10501 10503 10504 10509 10521 10524 10515 10510 10512 10513 10510 10510 10512 10511 10510 10516 10519 10516 10515 10517 10517
10655 10653 10652 10649 10647 10643 10640 10638 10635 10632 10629 10626 10624 10622 10617 10614 10610 10604 10602 10599 10594 10590 10589 10586 10582 10579 10577 10570 10565 10566 10564 10558 10555 10554 10551 10545 10540 10539 10535 10530 10529 10526 10519 10514 10511 10508 10504 10506 10510 10508 10507 10516 10514 10498 10489 10488 10492 10506 10515 10505 10494 10490 10487 10487 10486 10486 10489 10490 10488 10490 10494 10501 10504 10499 10495 10494 10496 10497 10496 10496 10498 10501 10504 10504 10501 10499 10499 10500